Medicine Lodge, KS

10:03 PM CST on February 12, 2016 (GMT -0600)
Medicine Lodge

Weather History for KP28 - July, 2012

Change the Weather History Date:

Sunday, July 22, 2012

  Actual Average Record
Temperature  
Mean Temperature 85 °F 83 °F  
Max Temperature 103 °F 95 °F 110 °F (1954)
Min Temperature 66 °F 70 °F 52 °F (1970)
Degree Days  
Heating Degree Days 0 0  
Month to date heating degree days 0 0  
Since 1 June heating degree days 8 3  
Since 1 July heating degree days 0 0  
Cooling Degree Days 20 18  
Month to date cooling degree days 470 370  
Year to date cooling degree days 1308 879  
Since 1 June cooling degree days 934 723  
Growing Degree Days 34 (Base 50)    
Moisture  
Dew Point 56 °F    
Average Humidity 46    
Maximum Humidity 68    
Minimum Humidity 23    
Precipitation  
Precipitation 0.00 in 0.11 in 1.40 in (1995)
Month to date precipitation 0.00 2.54  
Year to date precipitation 14.14 16.39  
Snow  
Snow 0.00 in 0.00 in - ()
Month to date snowfall 0.0 0.0  
Since 1 June snowfall 0.0 0.0  
Since 1 July snowfall 0.0 0.0  
Snow Depth -    
Sea Level Pressure  
Sea Level Pressure 29.96 in    
Wind  
Wind Speed 6 mph (SE)    
Max Wind Speed 16 mph    
Max Gust Speed 23 mph    
T = Trace of Precipitation, MM = Missing Value Source: NWS Daily Summary

Daily Weather History Graph

Daily Weather History Graph

Search for Another Location

Airport or City:

Trip Planner

Search our weather history database for the weather conditions in past years. The results will help you decide how hot, cold, wet, or windy it might be!

Date:

Astronomy

Jul. 22, 2012 Rise Set
Actual Time 6:31 AM CDT 8:49 PM CDT
Civil Twilight 6:01 AM CDT 9:19 PM CDT
Nautical Twilight 5:25 AM CDT 9:55 PM CDT
Astronomical Twilight 4:45 AM CDT 10:35 PM CDT
Moon 10:11 AM CDT (7/22) 10:40 PM CDT (7/22)
Length of Visible Light 15h 17m
Length of Day
14h 18m
Waxing Crescent, 13% of the Moon is Illuminated
Jul 22
Waxing Crescent
Jul 26
First Quarter
Aug 1
Full
Aug 9
Last Quarter
Aug 17
New

Hourly Weather History & Observations

Time (CDT) Temp. Heat Index Dew Point Humidity Pressure Visibility Wind Dir Wind Speed Gust Speed Precip Events Conditions
12:56 AM 82.0 °F - 50.0 °F 33% 29.96 in - Calm Calm - N/A   Unknown
1:56 AM 80.1 °F - 51.1 °F 36% 29.95 in - Calm Calm - N/A   Unknown
2:56 AM 80.1 °F - 52.0 °F 38% 29.94 in - East 4.6 mph - N/A   Unknown
3:56 AM 73.9 °F - 53.1 °F 48% 29.96 in - Calm Calm - N/A   Unknown
4:56 AM 70.0 °F - 53.1 °F 55% 29.96 in - Calm Calm - N/A   Unknown
5:56 AM 69.1 °F - 55.0 °F 61% 29.97 in - East 4.6 mph - N/A   Unknown
6:56 AM 66.9 °F - 55.9 °F 68% 29.99 in - NE 3.5 mph - N/A   Unknown
7:56 AM 78.1 °F - 57.0 °F 48% 29.99 in - ESE 4.6 mph - N/A   Unknown
8:56 AM 82.9 °F 82.6 °F 57.9 °F 42% 30.00 in - SE 5.8 mph - N/A   Unknown
9:56 AM 88.0 °F 87.1 °F 59.0 °F 37% 30.00 in - Variable 3.5 mph - N/A   Unknown
10:56 AM 91.9 °F 92.5 °F 62.1 °F 37% 30.00 in - Variable 4.6 mph - N/A   Unknown
11:56 AM 96.1 °F 96.0 °F 60.1 °F 30% 29.98 in - South 8.1 mph - N/A   Unknown
12:56 PM 99.0 °F 97.7 °F 55.9 °F 24% 29.98 in - SE 11.5 mph 18.4 mph N/A   Unknown
1:56 PM 100.0 °F 99.2 °F 57.0 °F 24% 29.96 in - SE 8.1 mph 16.1 mph N/A   Unknown
2:56 PM 100.9 °F 101.6 °F 60.1 °F 26% 29.95 in - Variable 6.9 mph 16.1 mph N/A   Unknown
3:56 PM 100.9 °F 100.5 °F 57.9 °F 24% 29.93 in - SE 10.4 mph 17.3 mph N/A   Unknown
4:56 PM 102.0 °F 101.1 °F 57.0 °F 22% 29.93 in - South 12.7 mph 20.7 mph N/A   Unknown
5:56 PM 100.9 °F 99.6 °F 55.0 °F 22% 29.93 in - ESE 8.1 mph - N/A   Unknown
6:56 PM 100.0 °F 99.2 °F 57.0 °F 24% 29.93 in - SE 8.1 mph - N/A   Unknown
7:56 PM 99.0 °F 97.7 °F 55.9 °F 24% 29.92 in - SSE 6.9 mph - N/A   Unknown
8:56 PM 95.0 °F 92.5 °F 53.1 °F 24% 29.94 in - SE 8.1 mph - N/A   Unknown
9:56 PM 91.0 °F - 52.0 °F 26% 29.95 in - ESE 5.8 mph - N/A   Unknown
10:56 PM 87.1 °F 84.9 °F 53.1 °F 31% 29.96 in - ESE 5.8 mph - N/A   Unknown
11:56 PM 86.0 °F 84.5 °F 55.0 °F 35% 29.96 in - SE 5.8 mph - N/A   Unknown